STARLINK-1667, 46155

Orbit data source: Space-Track

STARLINK-1667, 46155 is a payload satellite owned by SpaceX/Seattle (US) in LEO that was launched on Tue, 18 Aug 2020 UTC via an FALCON 9 launch vehicle from the Air Force Eastern Test Range (AFETR). Payload-class satellites include a variety of spacecraft equipped with specific instruments for various scientific and technological missions. These include communications satellites like Starlink; space stations such as the ISS; scientific satellites like the Hubble; Earth observation satellites from companies like Planet Labs, Umbra, and HawkEye 360; GPS; miniature CubeSats for education and research; and military/defense satellites.

Loading next visibility...
Identifier
46155, 2020-057AQ
Orbit
LEO
Country
Flag of USUS
Related business
Manufacturer
SpaceX/Seattle
Mission
Partially operational Commercial Communications
Bus & Motor
STARLINK, Unknown motor
Mass
260 kg wet, ~248 kg dry
Launch date (UTC)
2020-08-18 (5 years ago)
Launch vehicle
FALCON 9
Launch site
Air Force Eastern Test Range (AFETR)
Object type
Payload
Rocket body
Debris
Shape & HBR
Box + 1 Pan, 10.1 m
Radar Cross Section
13.562 m², Large (>1 m²)

Expand to show TLE details & history
Last TLE update: 20 hours ago

TLE from 20 hours ago
0 STARLINK-1667
1 46155U 20057AQ  25287.06318915  .00057989  00000-0  20139-2 0  9997
2 46155  53.0352 202.9887 0010565  63.7748 296.4336 15.29181096285931
Epoch: 2025-10-14T01:30Z
TLE epoch observation values (Epoch: 2025-10-14T01:30:59.542Z)
Latitude
0.00001°
Longitude
157.38362°
Altitude
475.926 km
Speed
7.631 km/s
True Right ascension
13h 31m 57s
True Declination
0° 00' 00"
Sunlit
Object was in daylight at epoch
Visualization orbit readout
Latitude
Unknown
Longitude
Unknown
Altitude
Unknown
Speed
Unknown
Apparent Right ascension
Unknown
Apparent Declination
Unknown
Sunlit
N/A
Visualization observer readout
Local Sidereal Time
15:47:23
Azimuth
Unknown
Elevation
Unknown
Doppler factor
Unknown
Orbital elements
Apogee altitude
485.78 km
Perigee altitude
471.291 km
Semi-major axis
6,856.672 km
Eccentricity
0.00106
Inclination
53.0352°
RAAN
202.9887°
Arg. of periapsis
63.7748°
True anomaly
296.32513°
Mean anomaly
296.4336°
Eccentric anomaly
296.37937°
Mean motion
3.82273 °/min
Orbital period
94.17 mins
BSTAR
0.0020139
Loading maneuver chart data...
Computing Atmospheric mass density...
Loading historical data...
Loading historical data...
Loading historical data...
Loading historical data...
Loading historical data...
Loading historical data...
Loading historical data...

Documentation

Showing up to 5 results
|